Wind_Speed
11 10 10 12 15 18 19 18 18 20 19 16 15 13 12 12 9 7 6 6 6 6 5 4 4 6 9 10 12 13 10 7 7 7 8 9 10 13 15 15 14 12 13 13 14 14 16 16 15 14 14 13 12 11 12 14 14 13 13 15 15 14 14 15 16 17 16 15 15 15 15 15 14 15 16 16 17 18 19 20 22 25 27 28 29
12 11 10 13 14 16 19 19 19 19 18 18 15 14 14 13 10 8 7 7 7 6 5 6 7 9 10 11 13 14 11 7 6 6 6 7 8 9 12 14 14 14 14 15 15 15 17 18 18 16 14 13 12 12 11 12 13 12 10 12 15 15 14 14 15 16 16 15 14 14 15 14 14 14 16 17 19 19 20 20 21 24 27 29 30
10 10 10 12 13 15 20 21 20 20 19 18 16 15 15 13 11 10 9 8 8 7 7 7 9 11 12 13 14 15 13 10 6 5 5 6 6 6 8 10 12 13 14 14 14 15 16 18 18 17 15 14 13 12 12 12 12 12 11 12 14 15 15 15 15 15 16 14 13 12 13 13 13 14 15 17 19 20 21 21 22 24 26 29 30
9 10 9 10 12 14 18 20 20 21 21 20 18 17 16 15 13 11 10 9 9 9 9 8 10 12 14 16 16 16 14 12 8 5 4 4 4 5 5 7 8 9 10 11 11 11 13 15 16 16 15 15 14 13 12 12 11 12 12 12 14 15 16 15 15 15 15 14 13 13 12 13 14 13 13 13 14 15 16 19 21 24 26 28 30
7 9 9 9 10 12 14 16 17 19 21 20 18 18 18 16 14 13 12 11 10 10 10 9 10 12 13 15 17 17 16 14 11 7 4 2 2 3 4 4 4 5 6 6 6 7 8 9 11 12 13 14 14 14 14 14 13 13 13 13 13 14 14 15 15 16 15 15 15 14 13 13 13 13 12 12 11 10 11 13 16 21 26 28 29
7 7 7 7 8 10 12 13 14 16 18 18 18 19 19 18 17 15 13 13 13 11 10 10 10 11 13 14 17 17 17 16 12 8 4 1 1 1 1 1 1 1 2 3 3 4 5 6 7 8 10 10 10 11 12 13 13 12 12 12 12 12 12 13 15 16 16 15 15 14 13 13 13 12 12 13 13 13 12 12 12 15 21 26 29
7 7 6 7 9 11 13 14 14 15 16 17 20 21 20 20 19 16 14 14 14 13 12 12 11 11 12 14 16 16 16 16 13 9 5 2 2 3 3 2 2 2 1 2 2 3 3 5 6 7 7 6 6 6 7 8 8 8 8 9 10 11 12 13 14 14 15 15 14 13 13 14 14 11 11 13 14 14 13 13 12 10 12 17 22
10 10 10 10 12 13 15 15 14 13 13 16 20 22 21 21 20 17 16 16 16 15 14 13 13 11 12 14 14 14 14 15 13 10 7 4 3 4 4 3 3 2 2 2 3 3 3 4 4 4 4 4 5 5 5 5 4 4 4 5 7 8 10 11 12 13 13 13 13 13 14 14 13 11 12 12 13 13 12 12 12 10 9 11 13
13 13 13 12 11 13 14 14 13 13 13 14 16 19 21 22 22 21 22 19 17 17 17 16 15 12 12 14 14 15 14 14 13 12 8 4 2 2 3 3 2 2 2 2 3 3 3 3 3 3 3 3 3 4 3 4 3 4 4 4 4 4 5 7 9 10 11 12 12 12 12 12 12 12 11 11 11 11 12 12 12 11 10 11 11
9 8 8 9 8 10 11 11 13 13 13 14 16 18 20 20 22 26 26 20 18 18 19 18 17 13 13 14 15 15 15 14 13 12 8 3 1 1 2 2 2 2 2 3 3 4 4 4 4 4 4 4 3 3 3 3 3 4 4 4 3 3 3 3 5 6 7 9 10 10 11 11 11 10 10 9 9 9 10 11 12 12 11 11 12
7 8 7 7 8 9 10 11 12 12 13 16 18 19 20 19 20 26 28 23 19 21 21 20 18 15 14 15 15 15 15 14 12 10 6 2 3 4 5 5 5 5 4 4 4 5 5 5 5 5 5 5 4 4 3 4 4 4 4 4 3 3 3 2 3 3 4 5 6 7 8 9 9 9 8 8 8 8 9 10 11 11 11 11 12
9 10 9 8 8 10 11 13 14 15 17 19 21 21 21 20 18 21 28 27 23 23 23 22 19 16 15 14 14 13 13 12 10 8 4 3 4 6 6 7 7 6 6 6 6 6 6 6 6 6 6 5 5 5 4 4 4 4 4 3 3 3 3 3 2 2 2 3 3 4 5 6 7 7 7 8 8 9 9 10 10 10 9 10 11
14 13 13 11 9 9 11 14 17 17 16 19 21 20 19 21 20 20 24 28 26 25 25 23 20 17 15 14 13 11 11 10 8 6 3 3 4 6 7 8 8 8 8 8 9 9 8 8 8 7 7 7 6 6 6 6 5 5 4 4 3 3 2 2 2 2 3 3 4 4 4 4 5 5 5 6 7 7 7 8 8 7 7 8 8
22 21 21 20 18 16 17 18 20 20 17 20 23 21 18 19 21 20 20 26 30 28 26 24 22 18 14 12 12 10 9 8 7 5 2 2 5 6 8 9 10 11 11 11 11 11 11 11 10 10 10 10 10 10 9 9 8 8 7 6 6 5 4 3 2 1 0 2 4 4 5 5 6 6 6 6 7 7 7 8 9 8 8 8 8
27 25 25 24 22 21 19 19 21 22 23 24 24 24 24 22 20 21 21 28 33 31 28 29 25 18 13 11 11 9 8 7 5 3 1 2 5 7 9 10 10 11 12 13 13 13 12 12 13 13 13 13 14 14 13 13 12 12 11 11 10 9 9 8 7 6 4 3 2 2 2 3 3 4 5 5 6 7 7 8 9 9 9 9 9
26 24 22 20 18 19 19 19 20 21 23 25 25 27 30 24 18 18 21 26 33 34 32 32 26 17 13 11 11 10 9 7 4 2 2 3 5 7 8 8 9 10 10 11 12 12 12 12 13 14 14 15 15 15 15 15 14 14 14 14 14 13 13 12 11 10 8 7 6 5 5 5 4 4 5 5 5 5 5 6 6 6 7 7 8
20 18 17 16 16 17 17 19 20 21 22 23 24 27 25 18 13 15 17 19 27 36 36 32 24 18 15 12 11 10 9 7 5 5 5 4 4 6 8 8 7 7 8 8 9 10 10 11 11 12 12 13 14 14 14 13 13 14 14 14 14 13 13 13 12 12 11 10 9 8 7 7 7 6 6 6 6 6 6 7 6 6 5 5 5
18 14 12 13 14 15 16 17 18 19 21 21 22 24 21 14 12 14 15 14 18 32 36 29 21 17 15 13 12 11 11 9 8 8 7 6 5 5 7 7 6 4 4 5 5 6 7 8 9 9 9 10 10 10 10 10 10 11 11 11 12 12 12 12 12 12 12 11 11 10 10 10 9 8 7 7 7 7 7 7 7 7 6 5 4
14 11 10 11 12 14 14 13 14 15 16 17 19 20 18 13 10 9 11 10 10 20 28 26 20 16 14 14 13 13 13 13 12 11 9 8 8 7 6 5 4 3 1 1 1 2 3 4 5 5 5 6 6 6 6 6 7 7 7 8 8 9 9 10 10 11 11 11 11 11 11 11 10 10 11 11 11 11 10 10 10 9 8 7 6
11 8 8 9 9 10 11 10 10 10 9 11 12 14 15 11 8 6 7 7 6 11 18 21 21 18 16 16 16 15 15 16 16 15 12 11 11 10 9 7 5 4 4 4 4 3 2 1 1 1 1 1 1 2 2 2 2 3 4 4 5 5 6 7 7 8 9 10 10 10 11 11 10 10 10 11 12 13 13 13 13 13 12 11 10
11 9 8 8 8 8 9 9 8 8 7 7 8 10 10 8 5 4 5 5 6 9 12 17 22 22 20 18 18 17 17 18 18 17 15 14 13 13 13 12 11 10 8 6 6 6 6 6 5 5 4 4 4 3 2 2 2 3 3 3 4 4 4 5 6 7 8 9 10 11 11 11 11 11 10 11 11 12 12 13 13 14 14 13 12
12 10 10 9 8 8 8 9 9 8 7 7 7 8 7 5 4 4 5 5 7 10 13 17 23 25 24 22 21 20 19 19 19 17 17 17 17 17 18 18 17 15 13 11 10 9 9 9 9 9 9 8 8 7 7 6 6 7 7 7 8 8 7 7 8 9 9 10 10 11 12 13 13 13 12 12 12 12 12 14 15 16 16 16 15
13 12 11 10 9 9 8 10 11 10 9 8 7 7 6 4 3 4 4 6 9 13 17 22 26 28 27 26 25 23 22 20 20 19 19 19 20 20 20 21 20 19 18 18 16 14 13 12 11 12 12 11 10 10 10 11 11 11 11 11 12 13 13 12 12 12 12 13 13 14 14 15 16 16 15 15 14 14 16 17 18 19 19 19 19
16 14 15 14 13 12 11 11 12 12 12 10 9 8 6 5 4 5 5 5 9 14 18 22 26 29 29 28 27 26 25 23 23 22 22 21 21 20 20 21 20 20 22 23 21 19 18 16 15 15 15 14 12 12 12 12 13 14 15 15 15 15 16 15 15 15 15 15 16 17 17 17 17 18 18 18 18 18 19 19 20 20 20 19 19
18 17 16 17 17 16 15 14 14 14 14 14 13 11 9 7 6 5 5 6 8 12 15 17 20 24 26 25 25 25 24 25 25 25 23 22 20 20 20 20 19 19 22 23 23 23 23 21 20 19 18 16 15 14 13 13 13 14 15 16 16 17 17 17 16 17 17 17 18 19 20 20 20 20 21 21 22 23 23 22 22 22 22 21 20
22 21 22 23 23 22 20 18 16 15 14 15 15 14 12 11 8 5 5 7 10 13 15 16 18 19 20 21 24 26 27 26 27 26 25 24 23 22 21 20 18 18 18 20 22 24 26 26 26 25 24 21 19 19 17 14 12 12 13 15 16 17 17 17 16 17 18 20 21 21 21 22 22 23 23 24 25 27 27 27 26 25 24 23 21
22 22 22 24 24 24 23 22 20 15 12 12 13 14 12 11 9 7 5 7 10 12 15 17 17 19 21 22 26 28 27 24 24 26 28 29 28 27 24 20 18 18 19 21 22 23 24 27 30 30 29 27 24 20 16 13 11 12 13 14 16 17 18 18 17 18 19 21 22 22 23 24 24 24 25 26 27 29 30 30 30 29 28 26 24
20 20 20 21 22 22 22 24 24 21 16 13 12 13 12 11 9 8 7 7 7 9 11 14 16 19 23 24 24 23 21 19 21 24 28 30 31 31 31 27 23 22 21 20 20 20 22 25 30 30 28 27 24 18 14 12 13 14 15 16 17 17 18 19 19 20 21 21 22 23 25 25 25 25 26 27 28 30 31 31 32 32 31 30 29
18 20 20 19 19 19 19 22 23 24 22 18 15 13 13 13 12 10 9 9 8 8 8 9 12 14 17 19 20 20 20 21 23 25 27 29 30 30 30 29 26 24 21 18 19 21 23 24 24 23 22 22 22 19 15 15 16 18 20 22 22 20 20 21 21 21 22 22 22 23 24 25 26 26 28 29 30 31 32 32 33 34 33 32 31
17 20 19 17 17 17 17 19 20 21 22 21 19 16 13 13 14 14 12 11 11 10 10 10 10 11 12 13 14 15 17 19 21 23 24 26 26 25 24 23 23 23 22 21 21 22 23 22 20 18 18 18 19 19 18 19 20 22 25 26 27 26 25 25 24 24 23 23 24 24 25 27 27 28 29 30 31 32 33 33 34 34 33 32 32
19 20 18 17 19 20 20 21 22 21 19 18 18 16 13 12 13 14 13 13 12 12 11 11 11 11 12 12 12 12 12 13 15 18 20 22 23 24 24 24 23 22 20 18 17 16 16 16 16 16 16 17 17 18 20 21 23 25 28 29 30 29 28 28 28 27 25 25 26 27 28 29 29 29 30 31 31 32 33 34 35 35 33 32 33
19 20 20 20 19 20 21 22 23 22 19 17 18 19 15 11 10 11 11 12 12 12 12 11 11 11 11 11 12 13 14 15 16 17 18 20 20 20 19 19 18 17 15 13 14 15 15 16 17 18 19 19 19 20 22 23 25 27 28 29 30 30 30 31 31 29 28 28 28 29 30 30 30 29 29 29 31 31 32 33 34 34 33 33 33
15 14 18 21 21 20 20 20 22 25 24 22 23 22 16 9 8 8 9 11 12 13 13 13 12 12 13 15 16 17 18 19 20 20 20 20 19 17 16 16 16 16 16 17 18 19 19 20 22 23 23 23 23 23 24 24 25 26 28 30 31 32 32 33 32 31 30 29 29 31 33 32 31 30 29 30 31 31 31 32 32 33 33 34 34
15 12 15 20 22 23 23 22 23 25 25 22 21 19 14 10 11 11 9 11 14 15 17 18 17 18 19 19 19 19 18 18 19 20 20 20 19 18 18 19 19 20 21 22 23 23 23 25 26 27 26 26 26 26 27 27 26 27 29 31 31 31 32 33 32 31 31 31 31 33 36 36 35 34 33 32 32 31 30 30 31 32 33 34 34
15 15 18 21 22 22 22 22 23 23 23 20 17 16 14 15 16 16 13 12 14 17 19 20 21 22 21 21 20 19 17 16 18 20 20 20 19 19 19 20 20 21 22 24 25 26 27 28 30 30 28 27 27 28 29 29 30 30 30 29 29 30 31 32 31 31 31 32 33 35 37 39 39 37 35 33 32 31 31 31 32 33 33 34 34
16 16 18 21 23 25 25 25 25 24 23 22 21 19 18 18 19 20 17 14 14 17 17 18 19 21 21 22 21 19 17 17 17 18 18 18 18 18 19 19 19 19 20 21 23 24 25 27 29 29 29 28 28 28 29 29 29 29 28 27 28 29 29 30 31 32 33 35 36 36 37 39 39 37 35 33 32 31 32 34 34 34 34 35 35
21 18 16 18 22 26 27 26 27 27 25 23 23 23 22 20 20 21 18 15 15 16 17 19 20 20 20 23 22 20 19 18 18 17 17 18 18 19 20 21 21 22 22 22 24 25 26 27 28 28 28 28 28 28 27 27 27 26 25 25 26 26 27 29 31 34 35 37 37 37 38 39 38 35 33 31 31 31 32 34 35 35 35 35 35
14 12 13 17 21 24 23 22 24 28 27 24 22 23 24 22 22 21 19 18 17 17 17 19 21 20 21 23 23 21 20 20 19 20 20 20 19 20 22 23 24 24 25 25 25 26 27 27 27 27 27 26 25 25 24 24 25 25 25 24 25 26 26 28 31 33 35 36 37 38 38 38 36 34 32 31 31 31 33 35 36 36 35 35 36
13 15 17 19 20 19 18 18 21 24 24 23 21 21 22 23 24 25 24 22 21 20 19 20 21 22 23 24 25 24 23 22 22 22 22 21 20 20 21 24 25 25 26 26 27 27 28 27 27 26 26 25 24 23 23 24 25 25 26 25 26 26 27 29 30 31 33 35 37 37 36 35 34 32 32 31 31 32 34 35 35 35 36 37 38
16 19 21 21 19 18 18 18 19 20 20 21 21 21 22 24 26 27 27 26 25 23 22 22 23 25 26 26 26 26 25 26 25 25 24 22 20 20 21 23 25 25 26 27 28 29 30 30 29 28 27 26 25 24 24 25 25 26 27 27 27 28 29 30 31 32 34 35 34 34 34 34 33 32 31 31 32 34 35 35 35 37 38 40 40
21 20 21 22 23 24 23 21 20 19 19 20 21 23 25 27 29 29 28 28 28 26 25 25 26 28 28 28 27 27 28 29 29 29 28 26 23 22 22 23 25 27 28 30 30 30 31 32 31 31 29 28 27 26 26 26 27 27 28 29 29 29 30 30 32 33 34 34 33 31 32 33 32 31 32 34 36 36 36 37 38 39 40 40 40
26 26 26 25 25 27 27 26 24 23 22 22 23 24 25 27 29 30 29 29 29 29 28 28 29 30 30 30 29 29 29 29 30 31 32 31 29 27 25 24 25 28 30 32 32 31 32 32 32 32 30 29 27 27 27 27 28 29 30 30 31 30 30 30 31 31 31 31 30 29 29 30 30 31 33 35 36 37 37 38 40 41 41 41 41
31 30 31 31 31 31 31 31 32 31 29 28 28 29 29 29 29 30 31 30 30 29 28 29 30 31 31 32 32 32 32 31 31 32 33 34 33 32 30 28 28 29 31 31 32 32 31 31 32 32 31 29 28 28 28 29 30 31 32 32 31 31 30 30 28 26 25 25 25 25 27 29 30 31 33 35 36 37 38 40 41 41 42 42 42
34 33 33 34 36 37 37 37 38 38 36 33 32 32 32 32 31 30 31 31 30 28 28 29 30 32 33 33 33 32 32 32 32 33 33 34 34 33 33 32 31 31 32 32 33 33 32 31 31 31 31 31 30 30 31 31 32 33 33 32 32 32 31 29 25 21 20 21 22 24 26 29 31 33 35 36 37 38 38 38 39 40 40 41 41
34 34 34 33 34 36 38 39 40 40 39 37 34 33 33 34 33 32 31 32 32 32 33 33 34 35 34 33 32 32 33 33 33 34 34 34 34 34 35 35 34 33 33 34 34 34 34 32 31 31 32 32 31 32 33 33 33 33 33 32 31 30 29 26 21 18 19 21 23 25 27 30 33 35 37 38 38 37 36 36 37 37 38 39 40
30 31 31 30 30 31 33 35 36 38 38 38 36 35 36 37 36 34 34 34 34 35 36 37 37 35 33 32 32 32 32 32 32 33 34 35 35 34 34 34 33 31 32 33 32 33 34 34 33 33 32 32 32 33 33 32 32 32 32 30 29 27 25 21 19 19 21 22 24 27 30 32 35 37 37 37 35 34 34 35 36 36 38 39 41
31 31 30 30 30 29 30 31 32 32 34 35 36 36 37 38 37 36 36 36 35 36 36 37 37 35 32 32 32 31 30 30 30 31 33 33 33 32 32 31 30 29 30 31 32 33 34 33 32 31 30 31 32 33 32 32 31 30 29 27 26 24 21 19 19 20 22 24 28 30 31 32 32 32 31 30 30 31 33 34 35 37 39 40 42
32 33 33 32 33 33 33 33 33 33 32 33 34 36 37 38 38 38 38 38 38 38 39 38 37 36 33 31 31 30 30 29 29 31 33 34 32 32 32 33 33 31 30 31 31 31 31 30 28 27 28 29 30 30 30 29 29 27 25 23 22 20 18 18 19 20 24 27 29 28 26 25 25 25 26 27 29 31 33 35 37 38 40 41 43
33 34 35 35 36 37 37 38 38 38 37 36 37 38 39 40 41 41 41 41 41 40 40 40 38 36 33 30 29 30 30 29 30 32 34 35 35 34 32 32 32 30 29 28 27 26 27 27 26 27 28 28 27 26 25 24 23 22 20 20 18 17 17 18 20 22 26 27 25 22 21 21 22 24 25 27 29 31 33 35 37 38 40 42 44
34 34 34 34 35 36 38 39 40 41 42 42 42 42 42 42 43 43 43 43 43 42 42 41 39 37 34 32 32 33 32 32 34 36 36 37 39 36 29 26 27 27 26 25 25 25 27 28 27 27 27 25 23 22 20 18 18 17 17 16 16 17 18 20 22 24 25 22 20 19 19 21 22 24 26 28 30 32 33 35 37 39 40 42 44
35 34 34 34 34 35 36 38 38 40 43 45 45 45 44 43 45 46 46 45 45 44 44 42 40 39 38 37 38 38 37 36 38 40 40 41 40 35 28 24 25 26 25 25 25 25 27 27 26 25 24 21 19 16 15 14 14 14 14 14 16 18 20 21 21 21 19 17 17 18 20 21 23 25 27 28 30 32 34 36 37 39 40 41 42
Wind_Direction
197 206 216 217 219 218 220 222 213 207 210 215 221 226 227 232 238 241 252 270 281 288 300 313 330 352 5 15 18 15 1 331 300 279 263 254 241 233 234 236 238 242 246 248 247 247 251 253 250 246 243 240 242 243 241 237 233 234 234 230 226 226 227 225 226 232 240 246 249 248 246 247 250 252 254 256 256 256 255 253 252 253 257 258 258
191 199 213 219 224 229 231 232 224 217 220 225 229 230 230 231 235 244 259 270 276 281 285 291 317 349 3 7 13 15 7 347 315 288 267 250 241 235 234 237 239 241 246 251 253 253 252 252 253 251 247 241 239 240 240 238 232 230 229 221 219 221 223 225 229 234 239 242 245 244 243 244 248 251 254 256 256 256 257 257 255 252 252 255 256
201 199 208 215 221 228 230 235 235 231 229 230 232 231 231 228 232 246 257 262 266 273 280 295 323 343 353 357 7 12 5 357 336 299 280 258 245 239 236 237 239 241 245 248 251 252 249 248 250 250 246 242 239 236 237 236 229 226 224 217 214 215 220 226 232 235 238 238 234 234 239 244 248 250 252 254 255 254 254 256 257 256 254 254 254
217 205 210 218 225 228 231 241 246 241 232 230 233 233 229 224 229 243 249 252 259 271 285 303 322 335 343 349 355 1 360 357 350 318 283 265 257 252 244 241 241 243 246 246 242 240 240 242 244 245 243 240 238 235 232 229 227 227 222 217 215 216 222 226 227 233 236 235 233 237 244 248 250 252 254 254 254 254 254 254 254 256 256 254 252
228 211 216 228 239 238 240 251 256 250 239 235 236 232 227 222 224 234 239 240 247 265 283 295 312 324 334 341 345 351 352 351 350 341 315 276 259 253 249 245 239 239 243 246 241 230 228 230 235 241 241 240 239 238 238 236 237 237 230 224 220 220 225 225 225 233 239 239 242 246 249 251 252 253 254 250 247 250 259 260 253 251 251 252 250
231 219 226 234 240 243 248 256 259 257 247 238 233 230 229 224 220 226 232 232 238 253 271 281 298 315 323 331 339 344 346 345 345 343 331 289 212 206 209 218 204 210 230 240 244 228 218 219 223 230 233 236 237 238 243 247 248 248 246 242 234 230 232 232 231 232 235 240 244 244 244 250 254 253 252 249 250 255 264 267 259 250 249 251 251
212 210 227 237 241 250 260 264 262 261 253 239 233 235 236 231 224 225 231 233 238 245 258 272 283 301 313 321 332 339 342 341 338 336 321 261 192 170 167 171 167 161 177 197 219 220 207 203 207 215 221 225 223 224 231 240 244 243 248 251 244 239 239 238 236 232 231 235 239 239 241 248 251 249 250 250 255 260 262 261 257 259 256 253 253
236 245 258 267 271 273 277 275 267 261 255 245 243 246 248 241 231 233 240 235 236 245 251 263 271 285 305 314 324 331 336 336 333 333 326 286 233 205 199 205 201 200 201 193 196 201 191 186 191 198 195 192 195 201 207 215 216 213 223 232 225 225 230 234 239 240 240 240 240 243 247 252 256 256 257 257 259 258 257 256 255 261 269 265 260
263 269 276 278 280 280 279 278 274 264 256 255 256 255 257 251 238 241 247 234 229 241 246 256 264 274 295 305 314 321 329 335 334 336 336 318 277 235 211 208 203 198 198 193 188 186 178 167 163 162 154 150 166 176 176 183 185 174 177 191 191 190 203 221 232 238 243 245 245 247 250 256 262 267 269 269 267 261 258 260 259 260 267 270 268
242 248 265 268 267 276 278 274 270 264 259 266 270 264 263 260 246 245 249 235 223 233 239 248 257 267 285 296 305 315 326 336 338 339 342 347 0 121 134 127 122 117 127 143 156 165 167 162 156 147 136 126 125 125 125 138 146 142 148 158 157 151 162 200 226 236 245 250 253 256 259 263 267 269 269 268 266 260 258 259 257 260 265 271 274
188 184 197 208 214 236 250 251 253 257 261 266 272 272 268 263 251 246 247 240 223 223 232 241 249 260 276 288 299 311 323 334 339 342 350 36 91 103 101 91 87 85 93 105 120 136 145 151 154 151 146 138 132 126 119 118 119 121 125 133 142 143 147 177 212 233 252 262 268 270 270 272 272 272 270 270 267 263 266 267 266 268 268 266 268
159 160 176 189 194 210 227 240 248 259 268 268 270 272 267 262 256 246 244 240 224 216 223 233 241 254 268 281 293 305 319 332 339 344 2 76 99 95 88 78 75 76 81 89 96 106 120 128 134 137 138 138 134 132 130 122 120 121 122 132 143 147 156 179 195 207 233 255 269 270 272 277 278 280 282 283 281 277 278 280 281 282 277 268 265
193 196 204 210 211 225 252 264 264 263 264 263 261 260 260 262 261 255 246 236 220 209 216 227 237 248 261 273 283 298 313 324 333 340 10 91 106 98 92 85 82 85 85 88 92 95 103 110 114 119 120 120 117 113 111 108 107 107 106 111 116 125 145 173 197 213 228 242 255 258 263 272 277 280 286 285 283 283 284 284 287 289 290 289 285
227 228 230 235 240 249 264 270 270 270 265 261 260 260 260 260 260 262 253 234 218 205 207 220 231 237 246 261 272 288 302 311 325 332 0 107 120 111 104 99 93 91 89 88 90 92 95 99 103 105 105 104 101 98 95 93 92 92 89 86 86 86 84 80 75 68 253 254 262 267 268 270 273 276 279 281 282 284 283 283 285 286 286 288 290
237 239 245 252 257 263 267 265 268 274 274 271 271 267 255 246 249 249 242 229 216 205 206 215 222 222 224 245 262 275 287 296 310 311 288 144 133 122 111 106 98 92 90 87 86 86 89 93 94 95 95 95 93 91 89 87 85 84 82 79 77 74 71 68 65 63 60 50 22 351 334 310 303 303 300 298 297 295 292 288 288 287 283 278 276
237 244 253 261 270 275 275 275 276 277 278 276 273 262 244 232 238 240 236 229 215 209 215 219 217 210 206 229 250 261 273 282 278 250 223 197 153 136 125 114 104 96 90 85 83 82 83 87 90 92 92 91 90 89 87 85 83 81 78 74 72 70 67 64 62 62 62 59 53 46 44 40 27 14 5 357 348 338 330 321 312 303 292 284 277
239 252 262 267 275 279 280 284 284 282 283 278 269 263 249 235 247 251 247 242 221 214 220 222 215 202 196 213 237 250 262 265 253 235 218 217 191 159 147 132 118 107 97 88 83 82 83 84 85 88 91 92 92 91 89 87 83 79 75 71 68 65 62 60 59 58 57 57 56 51 47 44 38 32 25 20 10 0 353 346 342 337 325 310 295
250 258 263 266 272 277 280 281 282 283 284 279 269 267 265 257 256 252 252 258 234 218 218 218 209 192 189 207 226 238 249 251 245 235 221 222 225 202 171 150 137 127 112 102 94 90 89 88 85 84 86 89 91 91 91 88 83 77 72 67 62 58 54 51 49 47 45 43 43 42 40 37 32 27 23 21 11 360 354 349 342 337 332 326 314
250 252 256 264 268 274 277 277 283 285 286 289 280 272 273 270 260 250 250 264 249 220 216 217 210 188 185 208 222 230 240 243 242 238 232 227 229 228 213 185 165 167 183 146 122 107 99 94 88 85 87 88 88 87 86 82 76 69 62 56 52 48 44 40 37 34 30 27 25 23 21 19 15 10 7 4 357 353 352 349 344 337 331 322 311
242 244 247 257 264 272 280 285 297 301 304 316 306 286 281 277 271 263 251 252 238 216 216 221 216 196 187 205 219 223 230 237 240 241 240 237 239 241 241 239 239 247 257 262 266 266 255 258 350 45 94 96 93 90 87 73 57 42 33 31 31 28 24 24 22 17 14 12 10 6 3 358 351 349 350 347 343 342 342 341 339 336 332 326 318
237 240 241 251 260 273 287 296 306 316 327 343 334 309 294 284 277 262 250 251 236 224 222 219 214 204 195 204 218 221 223 231 238 242 244 244 246 249 251 255 261 265 261 251 253 263 262 260 263 261 262 264 262 260 259 264 279 287 297 310 318 326 336 341 343 345 348 349 349 349 347 344 339 336 337 337 337 338 337 334 330 326 324 322 317
236 238 243 252 261 271 284 291 295 305 321 341 347 334 318 299 269 231 228 235 230 234 233 221 216 213 205 204 214 221 223 230 238 243 246 247 248 250 253 258 264 269 268 258 249 250 254 254 254 253 255 259 264 268 271 269 269 271 274 280 286 291 295 298 304 310 316 320 324 327 327 328 329 329 329 331 333 335 335 336 334 329 321 315 313
235 238 243 250 262 271 279 286 290 295 305 320 333 334 328 314 286 258 241 223 222 229 225 217 217 219 213 208 212 219 222 227 235 240 244 248 251 253 257 263 269 277 279 273 260 251 248 246 246 246 243 246 255 263 268 271 271 271 273 275 279 285 290 291 294 297 301 305 308 311 314 316 319 320 320 321 323 323 324 328 332 334 328 318 310
238 241 246 251 257 264 273 283 289 292 295 303 312 319 322 313 294 287 275 251 244 238 225 218 217 215 212 212 215 218 220 226 233 238 242 248 252 256 260 265 271 278 281 276 266 259 257 252 249 246 239 236 242 248 256 267 271 272 272 274 277 281 287 291 294 297 299 301 303 305 308 310 312 313 314 315 316 315 316 318 321 326 330 324 311
240 246 253 259 264 264 267 274 281 286 290 295 299 302 306 308 305 295 277 264 261 250 238 234 227 216 211 215 223 228 232 239 243 243 243 247 253 259 264 268 272 277 280 278 273 269 270 269 264 257 249 246 251 256 261 266 271 275 275 275 277 279 282 286 291 296 298 300 300 299 301 304 305 305 307 309 312 313 312 313 314 318 324 325 317
251 258 264 268 271 269 266 269 276 283 287 292 296 297 298 301 305 295 259 245 251 250 246 247 243 233 223 222 230 238 240 243 248 249 248 249 253 256 261 267 271 274 276 278 279 279 280 282 280 271 261 261 267 269 268 266 266 274 278 277 277 277 279 283 287 291 293 295 294 293 295 298 299 299 301 304 308 310 310 310 311 313 316 319 316
261 268 272 273 274 273 271 271 275 281 285 288 290 292 295 297 295 290 267 245 245 246 249 252 252 247 240 233 231 232 232 232 239 248 254 258 258 257 258 263 268 272 274 277 281 282 281 284 287 279 265 261 267 269 267 267 268 275 279 278 276 274 273 277 285 289 289 289 289 289 290 292 293 295 297 300 304 306 307 307 308 309 309 311 312
264 266 268 271 272 274 275 274 274 275 278 282 282 284 288 288 287 284 278 267 253 244 245 248 247 247 250 250 247 244 243 240 241 247 253 257 258 258 259 262 266 273 278 280 282 282 281 285 291 286 268 257 259 263 267 275 280 283 285 286 285 280 273 273 280 286 287 287 287 288 288 290 291 291 292 294 297 300 302 304 305 306 305 306 309
253 255 257 260 262 265 269 271 273 273 274 275 275 277 277 276 278 277 275 275 272 266 258 251 248 248 252 258 261 261 259 257 256 255 256 257 257 260 263 264 266 271 277 282 284 286 287 288 288 282 266 256 257 261 267 275 280 286 290 291 291 290 284 281 283 285 285 286 285 284 284 286 287 287 286 287 289 293 296 298 302 304 302 303 307
248 252 256 258 261 265 266 268 272 273 274 273 273 275 274 271 270 270 271 271 272 274 273 268 265 262 261 263 266 266 264 262 262 261 261 260 261 263 264 264 266 269 274 279 280 281 282 282 277 269 261 260 263 268 272 274 279 286 290 292 291 290 290 288 287 286 286 283 279 277 277 279 280 281 282 282 284 288 291 293 297 300 299 300 304
263 258 256 260 268 269 268 271 274 276 276 273 270 270 268 266 266 268 271 274 276 278 277 273 270 267 268 270 271 274 274 271 268 267 267 267 268 268 268 267 268 268 268 271 271 270 271 272 274 274 270 267 269 274 275 276 280 284 286 287 288 288 289 289 288 288 285 280 276 276 277 277 278 280 282 283 284 286 289 290 292 295 294 295 300
254 253 249 253 263 266 264 267 272 274 274 271 271 268 261 263 271 273 275 276 277 277 272 267 264 261 262 263 266 269 269 267 268 272 273 273 273 273 270 266 265 263 260 263 267 270 270 271 273 275 275 274 274 275 275 274 276 278 279 281 282 283 284 285 285 285 282 281 282 282 282 282 282 281 281 283 284 285 287 288 289 290 289 290 293
243 256 253 250 251 254 257 261 265 267 265 265 269 266 257 254 262 264 269 271 270 268 260 251 246 248 254 259 263 267 268 267 266 266 268 268 268 270 268 266 268 267 266 268 271 273 274 274 274 274 275 277 278 278 276 274 272 273 274 276 278 280 282 282 283 285 286 287 288 286 285 286 285 281 279 279 279 282 286 287 287 286 285 287 289
237 241 244 247 251 252 255 260 262 260 259 260 263 261 255 255 257 255 253 256 257 255 250 247 248 252 258 260 261 263 265 264 261 259 261 264 267 271 273 272 273 272 270 270 271 270 272 273 274 274 274 275 275 275 275 274 273 273 274 275 278 279 280 281 282 284 284 283 282 283 284 285 284 281 279 278 279 282 285 285 285 285 285 286 288
237 235 237 242 245 243 244 250 251 250 251 250 248 250 255 260 262 262 259 257 259 255 250 248 250 254 257 257 258 261 261 259 257 256 259 263 267 270 271 271 272 272 272 272 270 269 268 268 270 271 272 273 272 273 273 273 274 275 276 277 275 273 273 275 277 277 276 275 276 279 282 284 284 283 281 280 281 284 284 284 285 286 287 288 289
236 235 236 233 228 225 229 235 237 238 241 240 236 238 245 251 257 261 260 259 262 264 263 259 254 252 252 252 253 254 253 252 252 254 256 260 264 268 270 272 273 273 273 273 273 272 269 267 266 269 272 274 274 274 274 274 274 275 276 275 272 270 269 270 272 273 272 271 273 275 277 279 281 281 280 281 284 285 285 286 287 288 289 290 290
246 246 250 243 233 232 232 228 225 224 225 229 237 244 249 252 254 257 257 254 254 260 266 266 262 257 253 252 251 248 245 244 245 250 254 258 262 267 269 271 272 273 274 274 274 273 271 269 268 269 271 272 272 272 273 273 273 273 274 274 273 272 270 268 268 268 267 268 270 271 271 272 274 276 279 284 286 286 285 285 285 286 286 287 288
252 254 263 256 247 245 239 227 223 223 223 226 236 247 253 254 253 253 254 252 248 248 249 254 258 258 253 252 253 251 246 242 241 246 251 255 259 263 266 267 269 270 271 272 271 270 269 268 267 267 268 269 270 272 273 274 274 275 276 278 279 278 276 274 273 271 269 268 268 268 268 269 272 275 279 281 282 282 282 282 282 282 282 283 286
240 242 249 252 250 247 243 238 238 238 237 236 235 240 248 254 256 255 252 247 244 244 241 241 248 252 253 255 259 260 256 250 247 250 254 259 264 267 268 269 269 269 269 268 267 266 266 267 268 269 270 271 274 277 277 276 276 277 278 279 280 281 280 279 278 277 273 269 268 270 272 274 276 277 279 280 281 281 282 282 281 281 282 285 287
228 235 242 246 245 240 239 242 247 251 253 248 242 241 247 252 256 258 254 247 242 240 238 237 242 249 254 257 262 266 266 262 258 258 259 262 267 270 269 269 269 270 269 268 266 265 266 268 270 272 274 276 278 280 279 278 277 277 278 279 279 280 280 280 280 279 276 273 271 272 275 277 280 282 284 286 285 285 285 286 286 285 286 287 288
226 230 236 239 241 241 241 242 244 249 252 251 250 251 253 254 256 258 257 253 246 241 239 238 240 246 251 256 260 265 267 268 268 268 267 266 266 268 269 268 267 269 269 269 269 268 268 269 271 273 275 277 278 278 277 277 277 278 278 278 279 281 281 282 281 279 277 275 273 270 271 275 280 285 287 288 286 286 287 288 289 288 287 288 289
242 239 237 235 235 239 242 244 245 245 245 244 246 249 251 251 252 254 256 255 250 245 242 241 242 246 250 253 256 259 262 267 270 273 274 274 273 272 272 270 266 265 268 271 273 273 272 271 272 272 274 275 276 276 277 277 277 277 277 277 279 281 282 282 281 279 277 277 277 276 277 281 284 286 286 285 286 287 288 289 289 288 288 288 289
257 252 246 241 237 238 241 246 249 250 248 246 245 247 247 246 248 253 258 257 251 247 246 247 249 250 252 254 256 257 260 262 265 270 274 276 277 278 277 275 270 266 267 271 275 276 276 274 272 271 271 273 274 276 277 277 276 276 276 277 279 280 281 282 281 278 277 279 281 281 282 283 283 283 282 283 286 288 288 286 285 285 286 287 289
264 260 255 250 246 245 246 249 252 254 254 252 250 250 250 248 248 253 256 255 253 252 253 254 254 255 256 258 260 262 263 264 266 269 273 275 278 281 281 279 275 271 271 273 276 279 280 279 276 273 272 272 274 275 275 276 275 275 275 275 276 277 279 282 282 280 280 281 281 280 280 280 280 280 282 284 286 287 285 283 282 284 286 289 291
265 262 259 256 253 251 249 249 249 250 252 253 252 253 254 253 251 250 250 251 252 254 256 258 259 261 262 264 265 265 265 266 268 270 272 275 278 280 281 281 281 279 279 278 279 280 282 283 282 279 276 274 273 273 274 274 275 276 275 274 275 276 278 282 284 283 280 279 279 280 281 281 279 279 280 281 282 283 283 284 285 288 290 292 294
268 265 262 259 257 256 255 254 251 249 249 251 252 254 255 255 254 251 249 249 251 254 257 259 260 262 264 266 267 267 269 271 273 274 275 277 279 280 282 284 284 283 283 282 280 279 281 283 283 280 276 272 271 271 272 273 274 275 277 277 277 278 279 280 281 281 281 282 283 282 281 280 279 279 279 280 281 282 285 288 290 292 294 294 294
272 270 267 263 259 256 256 257 258 256 253 251 249 248 248 248 250 251 249 246 246 247 250 253 257 259 261 263 265 267 269 270 271 273 273 275 277 280 282 283 282 280 280 279 277 278 280 281 279 276 272 269 268 269 270 272 273 275 278 279 279 280 280 280 281 284 288 289 286 283 280 279 280 281 282 284 285 286 289 292 293 294 294 295 295
269 269 268 266 263 259 255 253 253 254 254 251 248 247 246 245 246 249 249 248 246 243 243 248 254 256 257 258 260 263 266 267 268 270 272 275 278 280 281 281 280 276 274 271 272 276 278 276 273 273 273 272 272 272 272 273 274 276 277 277 279 281 282 283 286 290 291 288 284 281 281 281 282 284 286 288 290 292 294 295 296 296 296 296 295
270 269 268 267 264 263 260 257 254 252 250 250 248 248 247 247 247 247 248 249 249 247 246 249 252 253 252 252 253 257 261 263 265 268 270 273 276 278 279 279 276 272 269 266 265 267 269 271 273 275 276 277 278 276 272 270 271 272 273 275 279 283 285 287 289 288 286 283 281 280 282 284 286 290 292 294 296 296 296 296 296 296 296 296 296
275 273 271 268 266 266 265 263 261 258 255 253 251 250 249 249 249 249 249 250 250 250 249 248 247 247 247 247 249 253 255 257 259 261 262 265 270 275 276 275 271 268 266 264 262 261 263 268 273 277 278 279 277 272 267 265 265 267 270 276 283 286 285 285 283 281 280 279 279 282 287 292 296 298 299 298 298 297 296 297 297 297 298 299 299
281 278 275 272 269 268 267 266 265 262 259 257 256 255 255 255 252 250 250 250 252 252 250 246 245 247 248 248 250 253 255 255 256 258 258 260 265 270 271 269 267 266 265 265 265 264 265 268 271 272 273 273 272 271 270 269 268 271 275 279 281 280 278 277 276 275 277 280 286 294 299 302 303 301 300 299 298 299 300 301 302 303 303 303 302
Height
3118 3120 3120 3121 3122 3123 3123 3123 3125 3127 3128 3130 3131 3132 3133 3134 3135 3135 3136 3137 3137 3138 3138 3138 3138 3137 3136 3134 3133 3131 3128 3127 3126 3126 3126 3127 3128 3129 3131 3132 3133 3134 3134 3134 3135 3136 3136 3136 3137 3138 3139 3139 3139 3139 3140 3140 3141 3141 3142 3143 3143 3144 3145 3146 3147 3147 3148 3149 3149 3150 3150 3151 3151 3151 3151 3152 3152 3152 3153 3153 3154 3154 3154 3153 3154
3117 3118 3119 3120 3121 3121 3121 3122 3124 3126 3127 3128 3130 3131 3132 3133 3134 3135 3136 3137 3137 3138 3138 3138 3138 3137 3136 3135 3133 3131 3129 3127 3126 3125 3125 3126 3127 3128 3129 3129 3131 3132 3132 3133 3133 3134 3134 3134 3134 3135 3136 3137 3137 3137 3138 3138 3138 3139 3140 3141 3142 3142 3143 3144 3145 3146 3146 3147 3147 3148 3149 3149 3149 3150 3149 3149 3149 3150 3150 3150 3150 3151 3151 3151 3152
3114 3116 3117 3118 3120 3120 3120 3121 3123 3125 3127 3128 3129 3130 3131 3132 3133 3134 3136 3136 3137 3137 3138 3138 3137 3136 3136 3135 3134 3132 3130 3128 3126 3125 3124 3125 3125 3126 3127 3127 3129 3130 3130 3131 3131 3132 3132 3132 3132 3133 3133 3134 3134 3135 3136 3136 3137 3137 3138 3139 3140 3141 3142 3143 3143 3144 3144 3145 3146 3147 3147 3148 3148 3148 3148 3147 3147 3147 3148 3148 3148 3148 3148 3149 3149
3113 3114 3115 3117 3118 3119 3120 3120 3122 3124 3125 3126 3128 3129 3130 3132 3133 3134 3135 3136 3136 3137 3137 3137 3136 3136 3135 3134 3132 3132 3130 3128 3126 3125 3124 3124 3124 3124 3125 3126 3127 3127 3128 3128 3129 3129 3129 3130 3130 3130 3131 3132 3132 3133 3134 3135 3135 3136 3137 3138 3139 3140 3141 3141 3142 3142 3143 3144 3145 3146 3146 3146 3146 3146 3146 3145 3145 3145 3145 3145 3146 3146 3146 3147 3147
3112 3113 3115 3116 3117 3118 3120 3120 3121 3122 3124 3125 3127 3128 3129 3131 3132 3133 3134 3135 3135 3136 3136 3136 3136 3136 3135 3134 3132 3131 3129 3127 3126 3124 3123 3123 3123 3123 3123 3124 3125 3126 3126 3126 3127 3128 3128 3128 3128 3129 3129 3130 3131 3132 3133 3134 3134 3135 3136 3136 3137 3139 3140 3140 3141 3141 3142 3143 3144 3144 3145 3145 3145 3144 3144 3144 3144 3144 3143 3143 3143 3144 3144 3144 3144
3110 3111 3113 3114 3116 3117 3118 3119 3120 3121 3122 3123 3125 3126 3128 3130 3131 3132 3133 3134 3135 3135 3136 3136 3136 3136 3135 3134 3133 3132 3129 3127 3125 3124 3123 3122 3122 3122 3122 3123 3124 3124 3125 3125 3126 3126 3127 3128 3128 3128 3129 3130 3131 3132 3132 3133 3133 3134 3135 3136 3136 3137 3138 3139 3139 3140 3141 3142 3142 3142 3143 3143 3143 3143 3143 3143 3143 3142 3142 3142 3142 3142 3142 3142 3142
3107 3109 3111 3112 3113 3114 3115 3116 3118 3119 3120 3122 3123 3124 3127 3129 3130 3131 3132 3134 3135 3135 3135 3135 3136 3136 3136 3135 3134 3133 3131 3128 3126 3124 3123 3122 3122 3121 3122 3122 3123 3124 3124 3125 3125 3125 3126 3127 3127 3128 3129 3130 3131 3132 3132 3132 3132 3133 3134 3134 3135 3136 3137 3137 3138 3139 3139 3140 3140 3140 3141 3141 3141 3141 3141 3141 3141 3141 3141 3141 3140 3140 3140 3140 3140
3106 3107 3108 3109 3110 3112 3113 3114 3116 3117 3119 3121 3122 3124 3126 3128 3130 3130 3131 3133 3134 3135 3135 3135 3136 3136 3135 3135 3134 3134 3132 3130 3127 3125 3123 3122 3121 3121 3121 3121 3122 3123 3123 3124 3124 3125 3125 3126 3127 3127 3128 3129 3130 3130 3131 3131 3132 3132 3133 3133 3134 3135 3135 3136 3136 3137 3138 3138 3139 3139 3139 3139 3139 3139 3140 3140 3140 3140 3140 3140 3139 3140 3139 3139 3139
3105 3106 3107 3109 3110 3111 3112 3113 3115 3116 3118 3119 3121 3123 3124 3126 3129 3129 3129 3131 3132 3134 3135 3135 3135 3135 3135 3134 3134 3134 3133 3131 3128 3126 3123 3122 3121 3120 3120 3121 3121 3122 3122 3123 3123 3124 3125 3126 3126 3127 3127 3128 3129 3129 3130 3130 3131 3132 3132 3132 3133 3134 3135 3135 3135 3136 3136 3137 3137 3137 3138 3138 3138 3138 3138 3139 3139 3139 3139 3139 3139 3139 3138 3138 3138
3105 3106 3107 3109 3110 3110 3111 3112 3114 3116 3117 3118 3119 3121 3122 3124 3126 3128 3127 3128 3130 3132 3134 3134 3134 3134 3134 3133 3133 3133 3132 3131 3128 3126 3124 3122 3121 3120 3120 3120 3120 3121 3121 3122 3123 3123 3124 3125 3126 3127 3127 3128 3128 3129 3129 3130 3130 3131 3131 3132 3133 3133 3134 3134 3135 3135 3135 3136 3136 3136 3136 3136 3136 3137 3137 3137 3137 3137 3137 3138 3138 3138 3137 3137 3137
3104 3105 3107 3108 3109 3110 3111 3112 3113 3115 3116 3117 3117 3119 3119 3121 3124 3125 3126 3126 3128 3129 3131 3133 3132 3132 3132 3132 3132 3132 3131 3130 3129 3127 3125 3123 3121 3120 3120 3120 3120 3120 3121 3121 3122 3123 3124 3124 3125 3126 3127 3128 3128 3129 3129 3129 3130 3130 3131 3131 3132 3132 3133 3133 3134 3134 3134 3134 3135 3135 3135 3135 3135 3135 3135 3136 3136 3136 3136 3136 3136 3137 3137 3137 3136
3102 3103 3105 3107 3108 3109 3110 3111 3112 3113 3114 3114 3115 3116 3116 3116 3119 3121 3121 3122 3123 3125 3129 3131 3131 3131 3131 3131 3130 3130 3130 3129 3129 3127 3126 3124 3122 3121 3120 3120 3120 3121 3121 3121 3122 3123 3123 3124 3125 3126 3127 3128 3128 3129 3129 3130 3130 3130 3131 3131 3131 3132 3132 3133 3133 3133 3133 3133 3134 3134 3134 3134 3134 3134 3135 3135 3135 3135 3135 3135 3136 3136 3136 3136 3135
3102 3103 3104 3105 3106 3107 3108 3108 3109 3110 3112 3112 3111 3112 3113 3112 3114 3115 3116 3117 3118 3121 3125 3129 3130 3131 3130 3130 3129 3129 3129 3129 3128 3128 3127 3125 3123 3122 3121 3121 3121 3121 3122 3122 3123 3123 3124 3125 3125 3126 3127 3128 3128 3129 3130 3130 3130 3130 3131 3131 3131 3131 3132 3132 3132 3132 3132 3132 3133 3133 3133 3133 3133 3133 3134 3134 3134 3134 3135 3135 3135 3135 3135 3135 3135
3101 3102 3104 3105 3106 3107 3107 3106 3105 3106 3109 3109 3108 3109 3111 3110 3112 3113 3114 3116 3116 3117 3122 3126 3127 3129 3129 3129 3128 3128 3128 3128 3128 3127 3127 3126 3125 3123 3123 3122 3122 3122 3123 3123 3124 3124 3125 3126 3126 3127 3128 3128 3129 3130 3130 3130 3131 3131 3131 3131 3131 3132 3132 3132 3132 3132 3132 3132 3132 3132 3132 3132 3132 3132 3133 3133 3133 3133 3134 3134 3134 3134 3134 3134 3134
3100 3102 3103 3104 3105 3105 3106 3105 3104 3104 3104 3104 3105 3106 3106 3107 3110 3111 3112 3113 3114 3115 3117 3120 3123 3126 3127 3128 3127 3127 3127 3127 3127 3127 3127 3127 3126 3125 3124 3124 3123 3124 3124 3124 3125 3126 3126 3127 3128 3128 3129 3129 3130 3130 3131 3131 3131 3132 3132 3132 3132 3132 3132 3132 3132 3132 3132 3132 3132 3132 3132 3132 3132 3132 3132 3132 3132 3132 3132 3132 3133 3133 3133 3133 3133
3100 3101 3102 3103 3103 3103 3103 3102 3102 3102 3101 3101 3102 3100 3099 3103 3107 3109 3110 3111 3113 3113 3113 3115 3119 3123 3125 3126 3126 3126 3126 3126 3126 3126 3127 3127 3127 3126 3126 3125 3125 3125 3125 3126 3126 3127 3128 3128 3129 3129 3130 3131 3131 3131 3132 3132 3132 3132 3133 3133 3133 3133 3133 3133 3133 3133 3133 3133 3132 3132 3132 3132 3132 3132 3132 3131 3131 3131 3131 3131 3132 3132 3132 3132 3132
3099 3100 3101 3101 3100 3100 3101 3100 3098 3098 3098 3097 3096 3095 3097 3103 3106 3106 3108 3108 3110 3111 3110 3112 3116 3119 3121 3124 3125 3125 3124 3125 3125 3126 3126 3127 3127 3127 3127 3127 3126 3127 3127 3127 3127 3128 3129 3129 3130 3130 3131 3132 3132 3132 3133 3133 3133 3133 3133 3133 3133 3133 3133 3133 3133 3133 3133 3133 3133 3132 3132 3132 3132 3132 3132 3131 3131 3131 3131 3131 3131 3131 3131 3130 3130
3098 3099 3099 3099 3099 3099 3099 3099 3097 3096 3095 3095 3093 3092 3096 3102 3103 3104 3104 3104 3106 3108 3109 3111 3114 3115 3118 3121 3123 3123 3123 3123 3124 3124 3125 3126 3127 3127 3128 3128 3128 3128 3128 3129 3129 3129 3129 3130 3131 3131 3132 3132 3133 3133 3134 3134 3134 3134 3134 3134 3134 3134 3134 3134 3134 3134 3133 3133 3133 3133 3133 3132 3132 3132 3132 3131 3131 3131 3131 3130 3130 3130 3130 3130 3130
3097 3098 3098 3098 3098 3098 3097 3097 3096 3095 3094 3093 3092 3091 3093 3097 3099 3100 3101 3101 3102 3105 3108 3111 3112 3113 3115 3119 3121 3121 3121 3122 3122 3123 3124 3125 3126 3126 3127 3128 3129 3129 3129 3130 3130 3130 3130 3131 3131 3131 3132 3132 3133 3133 3134 3134 3134 3134 3135 3134 3134 3134 3134 3134 3134 3134 3134 3133 3133 3133 3133 3132 3132 3132 3131 3131 3131 3131 3130 3130 3129 3129 3129 3129 3129
3096 3096 3097 3097 3096 3096 3096 3096 3096 3094 3093 3092 3091 3091 3092 3093 3095 3097 3099 3100 3101 3103 3106 3108 3109 3110 3112 3116 3118 3119 3119 3120 3120 3121 3123 3124 3124 3125 3125 3126 3127 3128 3129 3130 3130 3131 3131 3132 3132 3132 3132 3132 3132 3133 3133 3134 3134 3134 3134 3134 3134 3134 3134 3134 3134 3134 3134 3133 3133 3133 3133 3132 3132 3132 3131 3131 3131 3130 3130 3129 3129 3128 3128 3128 3128
3094 3095 3095 3095 3095 3095 3095 3095 3095 3094 3093 3092 3092 3092 3092 3092 3094 3096 3098 3100 3101 3102 3104 3105 3107 3108 3109 3113 3116 3116 3117 3118 3118 3119 3121 3122 3122 3123 3123 3123 3125 3126 3127 3128 3129 3130 3131 3131 3132 3132 3132 3132 3132 3132 3133 3133 3133 3133 3134 3134 3134 3134 3134 3134 3134 3134 3134 3133 3133 3133 3132 3132 3132 3131 3131 3131 3130 3130 3129 3129 3129 3128 3128 3127 3127
3093 3093 3093 3094 3094 3094 3094 3094 3094 3094 3094 3093 3093 3093 3093 3094 3094 3095 3097 3099 3101 3102 3103 3103 3105 3105 3106 3109 3112 3113 3114 3115 3116 3117 3118 3119 3119 3120 3120 3121 3123 3124 3125 3126 3127 3128 3129 3130 3131 3131 3131 3131 3131 3132 3132 3132 3132 3132 3132 3133 3133 3133 3133 3133 3133 3133 3133 3133 3133 3132 3132 3131 3130 3130 3130 3129 3129 3128 3128 3127 3127 3126 3126 3125 3125
3091 3092 3092 3092 3093 3093 3093 3093 3093 3093 3093 3093 3093 3093 3093 3094 3095 3095 3096 3098 3099 3100 3101 3101 3102 3102 3103 3105 3108 3110 3111 3113 3113 3114 3115 3115 3116 3117 3119 3120 3122 3123 3124 3125 3125 3126 3127 3128 3128 3129 3129 3130 3130 3131 3131 3131 3131 3131 3131 3131 3131 3131 3131 3132 3132 3132 3132 3132 3132 3131 3131 3130 3130 3129 3128 3128 3127 3126 3126 3125 3125 3124 3123 3123 3122
3090 3090 3090 3091 3091 3092 3092 3092 3092 3092 3092 3092 3092 3092 3092 3093 3094 3095 3095 3096 3096 3097 3098 3099 3099 3099 3100 3102 3105 3106 3108 3110 3111 3111 3112 3113 3114 3116 3117 3118 3120 3121 3121 3122 3123 3123 3124 3125 3126 3126 3127 3128 3128 3129 3129 3130 3130 3130 3130 3130 3130 3129 3129 3129 3130 3130 3130 3130 3130 3129 3129 3129 3129 3128 3127 3126 3126 3125 3124 3124 3123 3123 3122 3121 3120
3087 3088 3088 3089 3090 3090 3091 3091 3091 3091 3091 3091 3092 3092 3092 3092 3092 3093 3094 3094 3095 3095 3096 3097 3098 3098 3098 3099 3102 3104 3106 3108 3109 3110 3110 3111 3113 3114 3115 3116 3118 3119 3119 3119 3120 3121 3122 3123 3124 3125 3125 3126 3126 3127 3127 3128 3128 3128 3128 3129 3129 3128 3128 3127 3127 3127 3127 3127 3127 3127 3127 3127 3126 3126 3125 3124 3123 3123 3122 3121 3121 3120 3120 3119 3118
3085 3085 3085 3086 3087 3088 3089 3089 3089 3090 3090 3090 3090 3090 3091 3091 3091 3092 3093 3093 3093 3094 3094 3094 3095 3096 3096 3096 3099 3100 3102 3104 3106 3107 3109 3110 3111 3112 3113 3114 3115 3116 3116 3116 3117 3118 3119 3120 3121 3122 3123 3123 3123 3123 3124 3125 3125 3125 3126 3126 3126 3126 3126 3126 3125 3125 3124 3124 3123 3123 3123 3123 3123 3123 3122 3121 3120 3119 3118 3118 3118 3117 3117 3116 3115
3084 3083 3083 3083 3083 3084 3085 3085 3086 3087 3089 3089 3089 3089 3089 3090 3091 3091 3092 3092 3092 3093 3093 3093 3093 3093 3093 3094 3094 3094 3094 3097 3100 3103 3105 3107 3108 3110 3111 3112 3113 3113 3113 3113 3113 3114 3115 3116 3118 3119 3119 3119 3119 3120 3120 3121 3122 3122 3122 3123 3123 3123 3123 3123 3123 3123 3122 3121 3120 3120 3119 3119 3119 3119 3118 3118 3117 3116 3115 3114 3114 3114 3113 3113 3112
3082 3082 3082 3081 3081 3081 3081 3081 3082 3084 3086 3088 3088 3088 3089 3089 3090 3090 3091 3091 3092 3092 3093 3093 3093 3093 3093 3093 3093 3092 3092 3094 3097 3099 3102 3103 3104 3106 3108 3109 3109 3110 3111 3111 3111 3111 3112 3113 3113 3113 3114 3114 3115 3116 3117 3118 3118 3118 3119 3119 3119 3120 3120 3120 3120 3120 3119 3119 3118 3117 3116 3115 3115 3115 3115 3114 3114 3113 3112 3111 3111 3110 3110 3109 3108
3081 3081 3081 3080 3080 3080 3079 3079 3079 3080 3082 3084 3086 3087 3088 3088 3088 3089 3089 3090 3090 3091 3092 3092 3093 3093 3093 3093 3093 3092 3093 3094 3096 3098 3099 3100 3101 3102 3104 3105 3106 3107 3108 3108 3108 3109 3109 3110 3110 3110 3110 3111 3112 3113 3114 3114 3115 3115 3115 3115 3115 3115 3116 3116 3116 3116 3116 3116 3115 3114 3113 3112 3112 3111 3111 3111 3110 3110 3109 3108 3107 3107 3106 3105 3105
3079 3079 3079 3079 3080 3080 3079 3079 3078 3078 3079 3081 3082 3084 3085 3086 3087 3087 3087 3088 3088 3089 3090 3091 3091 3091 3091 3092 3092 3092 3092 3093 3095 3096 3097 3098 3099 3100 3101 3102 3102 3103 3104 3105 3105 3106 3106 3107 3108 3108 3108 3109 3109 3110 3111 3112 3112 3111 3111 3110 3111 3111 3112 3112 3112 3112 3112 3112 3111 3110 3109 3109 3108 3108 3107 3107 3107 3106 3106 3105 3104 3104 3103 3102 3102
3077 3077 3077 3077 3078 3079 3079 3078 3078 3078 3078 3079 3079 3081 3082 3084 3084 3085 3085 3086 3086 3087 3087 3088 3088 3089 3089 3090 3090 3090 3091 3092 3093 3094 3095 3096 3097 3098 3099 3099 3100 3100 3101 3101 3102 3103 3104 3104 3105 3105 3105 3105 3106 3107 3108 3109 3109 3108 3107 3107 3107 3107 3107 3108 3108 3108 3108 3108 3107 3107 3106 3105 3104 3104 3104 3103 3102 3102 3102 3101 3101 3100 3100 3099 3098
3074 3074 3074 3075 3075 3076 3077 3077 3077 3077 3077 3077 3077 3078 3079 3081 3082 3082 3083 3083 3084 3085 3085 3086 3086 3087 3087 3088 3089 3089 3090 3091 3091 3092 3093 3093 3094 3095 3095 3096 3097 3097 3098 3099 3100 3101 3102 3102 3102 3102 3102 3102 3103 3105 3106 3106 3106 3105 3104 3104 3103 3103 3103 3104 3103 3103 3104 3104 3103 3103 3101 3101 3101 3100 3099 3098 3098 3098 3098 3097 3097 3096 3096 3096 3095
3071 3071 3072 3072 3072 3072 3073 3074 3075 3075 3074 3074 3075 3075 3077 3079 3079 3080 3081 3081 3082 3083 3083 3084 3085 3085 3086 3087 3087 3088 3088 3089 3089 3090 3090 3090 3091 3091 3092 3093 3094 3094 3095 3096 3097 3098 3098 3098 3099 3099 3099 3099 3100 3101 3102 3102 3102 3102 3101 3100 3100 3100 3099 3099 3098 3099 3099 3099 3099 3098 3097 3096 3096 3095 3094 3094 3093 3094 3094 3093 3093 3093 3092 3092 3091
3070 3070 3071 3070 3069 3069 3069 3071 3072 3072 3072 3073 3073 3072 3074 3076 3077 3078 3079 3080 3080 3081 3081 3082 3083 3084 3084 3084 3085 3085 3086 3086 3086 3087 3087 3088 3088 3088 3089 3089 3090 3091 3092 3092 3093 3094 3094 3094 3094 3094 3095 3096 3097 3097 3098 3098 3097 3097 3097 3096 3096 3096 3095 3095 3095 3095 3095 3094 3094 3093 3092 3091 3091 3090 3089 3089 3088 3089 3089 3089 3088 3088 3088 3087 3086
3069 3068 3068 3068 3067 3066 3067 3068 3069 3070 3070 3070 3069 3069 3071 3072 3073 3075 3077 3078 3078 3078 3079 3080 3081 3081 3082 3082 3082 3083 3084 3084 3084 3085 3085 3086 3086 3086 3087 3087 3088 3088 3089 3089 3089 3090 3090 3090 3090 3090 3091 3092 3093 3093 3094 3094 3093 3093 3092 3092 3092 3092 3091 3091 3091 3091 3090 3090 3089 3089 3087 3086 3085 3084 3084 3083 3083 3084 3084 3083 3083 3082 3082 3082 3081
3066 3066 3066 3065 3064 3064 3064 3065 3067 3067 3067 3067 3065 3065 3068 3069 3069 3071 3073 3074 3074 3074 3075 3076 3077 3078 3079 3079 3080 3081 3081 3081 3082 3082 3083 3083 3084 3084 3084 3085 3085 3086 3086 3086 3086 3086 3087 3087 3086 3086 3087 3088 3089 3089 3089 3089 3089 3089 3088 3088 3087 3087 3087 3087 3087 3086 3085 3085 3085 3084 3083 3082 3080 3079 3078 3078 3079 3079 3079 3078 3078 3077 3077 3076 3075
3062 3063 3063 3062 3062 3062 3061 3061 3062 3063 3063 3063 3062 3062 3064 3066 3066 3067 3068 3070 3071 3071 3072 3072 3073 3074 3075 3075 3076 3077 3078 3079 3079 3079 3080 3080 3081 3082 3082 3082 3082 3083 3083 3083 3083 3083 3083 3083 3083 3084 3084 3085 3085 3085 3085 3085 3085 3085 3084 3084 3083 3082 3082 3082 3082 3081 3080 3080 3080 3079 3079 3077 3076 3076 3075 3076 3076 3076 3076 3075 3074 3073 3073 3072 3071
3059 3059 3058 3058 3059 3059 3057 3057 3058 3059 3060 3060 3060 3060 3060 3062 3063 3064 3065 3066 3067 3068 3070 3069 3069 3070 3070 3070 3071 3073 3074 3075 3076 3076 3076 3077 3078 3078 3079 3079 3079 3079 3079 3079 3079 3079 3079 3079 3080 3081 3081 3081 3081 3082 3082 3081 3081 3080 3080 3080 3079 3078 3077 3077 3077 3076 3076 3075 3075 3074 3073 3072 3072 3072 3072 3073 3073 3072 3072 3071 3070 3069 3068 3067 3066
3057 3056 3055 3055 3055 3055 3055 3054 3055 3056 3057 3058 3058 3057 3058 3059 3060 3061 3062 3063 3063 3064 3066 3066 3066 3066 3066 3067 3067 3068 3070 3071 3072 3072 3073 3073 3074 3075 3075 3075 3075 3075 3075 3075 3075 3075 3075 3075 3076 3077 3077 3077 3077 3078 3078 3077 3077 3076 3076 3076 3075 3074 3073 3073 3072 3072 3071 3071 3069 3068 3068 3068 3068 3068 3068 3068 3068 3067 3066 3065 3064 3063 3062 3061 3061
3053 3053 3053 3053 3053 3053 3053 3052 3053 3054 3054 3055 3055 3055 3056 3056 3056 3057 3059 3059 3060 3061 3062 3063 3063 3063 3063 3063 3064 3064 3065 3066 3067 3068 3069 3069 3070 3071 3071 3071 3071 3071 3071 3071 3071 3071 3071 3071 3072 3073 3073 3073 3074 3074 3073 3073 3073 3072 3072 3072 3071 3071 3070 3069 3068 3067 3066 3065 3065 3065 3064 3064 3064 3064 3064 3063 3062 3061 3060 3059 3058 3057 3056 3055 3054
3051 3050 3050 3050 3050 3050 3050 3050 3050 3051 3052 3052 3052 3052 3052 3053 3053 3054 3055 3055 3056 3057 3058 3059 3059 3059 3059 3060 3060 3061 3061 3061 3061 3062 3063 3064 3066 3067 3067 3067 3068 3067 3067 3066 3066 3067 3067 3067 3067 3068 3068 3069 3070 3069 3069 3068 3068 3068 3068 3067 3067 3066 3066 3065 3064 3062 3061 3060 3061 3060 3060 3060 3060 3059 3059 3057 3056 3055 3054 3053 3052 3051 3050 3049 3047
3048 3048 3047 3047 3046 3046 3047 3047 3047 3047 3047 3048 3048 3047 3048 3048 3049 3050 3051 3051 3051 3052 3053 3054 3054 3055 3055 3056 3056 3057 3057 3057 3057 3057 3057 3058 3060 3061 3062 3063 3063 3063 3062 3062 3062 3063 3063 3063 3063 3064 3064 3065 3065 3065 3064 3064 3064 3063 3063 3063 3062 3062 3061 3060 3060 3058 3057 3056 3056 3056 3056 3056 3056 3055 3054 3052 3051 3050 3049 3048 3047 3045 3044 3043 3041
3043 3044 3044 3043 3042 3042 3042 3043 3043 3043 3043 3043 3043 3043 3043 3043 3044 3045 3047 3047 3046 3047 3048 3048 3049 3050 3050 3051 3051 3052 3053 3053 3053 3053 3052 3052 3053 3055 3057 3058 3058 3058 3058 3057 3057 3058 3058 3059 3059 3059 3059 3060 3060 3060 3059 3059 3059 3058 3058 3058 3058 3058 3057 3056 3056 3055 3053 3053 3052 3052 3052 3052 3051 3050 3048 3047 3046 3045 3044 3043 3041 3040 3039 3037 3035
3037 3038 3038 3038 3038 3037 3038 3038 3039 3039 3039 3039 3039 3039 3039 3039 3040 3041 3042 3042 3042 3043 3043 3043 3044 3044 3045 3046 3046 3047 3048 3048 3049 3049 3048 3048 3048 3049 3050 3051 3052 3053 3053 3053 3053 3053 3053 3054 3054 3054 3054 3055 3055 3055 3054 3054 3054 3054 3054 3054 3054 3054 3053 3052 3052 3051 3051 3050 3049 3049 3048 3047 3046 3045 3044 3042 3042 3041 3039 3038 3036 3035 3033 3031 3029
3030 3031 3031 3031 3031 3031 3032 3032 3033 3034 3034 3034 3034 3034 3034 3034 3035 3036 3037 3038 3038 3038 3038 3038 3039 3039 3040 3041 3041 3042 3042 3043 3043 3043 3043 3043 3044 3044 3044 3044 3046 3047 3048 3048 3048 3047 3048 3048 3049 3050 3050 3049 3049 3049 3048 3049 3049 3049 3049 3049 3049 3049 3049 3048 3048 3047 3047 3046 3046 3045 3044 3043 3041 3040 3039 3038 3037 3036 3034 3033 3031 3030 3027 3025 3022
3024 3024 3024 3024 3025 3025 3025 3025 3026 3027 3028 3028 3029 3029 3029 3029 3030 3030 3031 3032 3033 3033 3033 3033 3034 3035 3035 3036 3036 3036 3037 3037 3037 3038 3038 3038 3039 3039 3039 3039 3040 3042 3042 3042 3042 3042 3042 3043 3043 3044 3044 3044 3043 3043 3043 3043 3044 3044 3044 3044 3044 3044 3044 3044 3043 3043 3042 3042 3041 3040 3039 3038 3036 3035 3034 3033 3032 3031 3029 3028 3026 3024 3022 3019 3017
3018 3018 3018 3018 3018 3018 3018 3018 3018 3020 3020 3021 3021 3022 3022 3022 3023 3024 3024 3025 3026 3027 3027 3027 3028 3030 3031 3031 3031 3032 3032 3032 3032 3033 3033 3034 3034 3034 3035 3035 3036 3037 3038 3037 3037 3037 3038 3038 3038 3038 3038 3038 3038 3038 3038 3039 3039 3039 3039 3039 3039 3039 3039 3039 3038 3038 3038 3037 3037 3036 3034 3033 3032 3031 3030 3029 3028 3026 3025 3023 3021 3019 3016 3014 3012
3013 3013 3013 3013 3012 3012 3012 3011 3012 3012 3013 3014 3014 3015 3016 3016 3017 3017 3018 3019 3020 3021 3021 3022 3023 3024 3026 3026 3026 3027 3027 3028 3028 3028 3028 3029 3030 3030 3031 3031 3032 3033 3033 3033 3033 3033 3033 3033 3033 3033 3033 3033 3033 3034 3034 3034 3034 3034 3035 3035 3035 3035 3034 3034 3034 3034 3034 3034 3033 3032 3031 3030 3029 3028 3027 3025 3024 3022 3020 3018 3015 3013 3011 3008 3006
3007 3007 3007 3007 3006 3006 3005 3005 3005 3006 3006 3007 3008 3009 3010 3011 3011 3012 3012 3013 3014 3015 3016 3017 3018 3019 3020 3020 3021 3022 3023 3023 3023 3023 3024 3024 3025 3026 3027 3027 3027 3027 3028 3028 3029 3029 3029 3029 3029 3029 3029 3029 3029 3029 3029 3029 3029 3030 3031 3031 3031 3031 3031 3031 3031 3031 3031 3030 3029 3028 3028 3027 3026 3024 3023 3021 3019 3017 3015 3013 3010 3008 3005 3003 3000
3000 3000 3000 3000 3000 2999 2999 2999 2999 2999 3000 3000 3001 3002 3003 3004 3005 3006 3006 3007 3008 3010 3011 3012 3012 3013 3015 3016 3016 3017 3019 3019 3019 3019 3020 3020 3020 3021 3023 3023 3023 3023 3023 3024 3025 3025 3025 3025 3025 3025 3025 3025 3025 3024 3024 3025 3026 3027 3027 3027 3027 3028 3028 3028 3028 3028 3027 3027 3027 3026 3025 3024 3022 3020 3019 3017 3015 3013 3011 3008 3006 3003 3000 2996 2993
2994 2994 2993 2993 2993 2993 2992 2992 2992 2992 2992 2993 2994 2995 2996 2997 2998 2999 3000 3001 3002 3003 3004 3005 3007 3009 3010 3011 3012 3013 3015 3015 3014 3014 3015 3016 3017 3017 3018 3019 3019 3019 3019 3020 3020 3021 3021 3021 3021 3021 3021 3021 3021 3021 3021 3022 3023 3024 3024 3025 3025 3025 3025 3025 3025 3025 3025 3025 3024 3023 3021 3020 3018 3016 3015 3013 3011 3008 3006 3003 3000 2997 2994 2990 2987